CZ-6A DEB

Satellite information

Favourite Embed

Satellite Type and Status

DEBRISIN ORBIT

Key statistics

Satellite CZ-6A DEB at a glance.

Uptime

441

Days in orbit

Revolutions

≈ 14.3

Per day

Orbit

LEO

Low Earth Orbit

Inclination

89.0

Latest

Satellite identification and parameters

Extended collection of information and parameters for CZ-6A DEB.

Object identification

Identified? True

Debris? True

Object name: CZ-6A DEB

International designator: 2024-140DN

Object number (NORAD): 60709

Object ID (CCSDS): 60709

Country: PEOPLES REPUBLIC OF CHINA (PRC)

Current information (Y/N): Y

RCS size: MEDIUM

Orbital parameters

Period: 100.931 minutes

Inclination: 88.9993 deg

SMA: 7180.878 km

Apoapsis: 813.656 km

Periapsis: 791.83 km

RAAN: 301.3384 deg

Eccentricy: 0.00151971

Argument of periapsis: 235.1918 deg

Mean anomaly: 124.7847 deg

Mean motion: 14.26712451 rev/day

Mean motion (dot): 0.00002159 rev/day2

B* drag term: 0.00088594292 1/REarth

Two-line elements (TLE)

Creation date: Oct. 21, 2025, 3:26 a.m.

Reference frame: TEME

Reference center: EARTH

Epoch: Oct. 20, 2025, 9:12 p.m. UTC

TLE line 0: 0 CZ-6A DEB

TLE line 1: 1 60709U 24140DN 25293.88376893 .00002159 00000-0 88594-3 0 9990

TLE line 2: 2 60709 88.9993 301.3384 0015197 235.1918 124.7847 14.26712451 61940

Live tracking on map

Real-time ground track for satellite CZ-6A DEB.

In-orbit conjunctions

A list of the most updated potential collisions computed for object CZ-6A DEB.

Target Orbit TCA Probability of collision Miss distance Type
CZ-6A DEB LEO 2025-03-02 04:13:52 0.001711397 537.0 (m) DEBRIS
FENGYUN 1C DEB SSO 2025-02-15 10:31:41 0.000195344 287.0 (m) DEBRIS
COSMOS 2251 DEB LEO 2025-01-02 19:25:41 0.0001175797 969.0 (m) DEBRIS
COSMOS 1867 COOLANT LEO 2024-12-29 04:41:58 0.0003153483 586.0 (m) DEBRIS
CZ-4 DEB SSO 2024-12-28 16:44:55 0.0001075685 317.0 (m) DEBRIS

Associated space launch

18 Low Earth Orbit communication satellites with Ku, Q and V band payloads for the G60 constellation operated by Shanghai Spacecom Satellite Technology (SSST) with funding backed by the Shanghai local government. Initial constellation will consist of 1296 satellites by 2027 with long term plans to expand it to 12000 satellites.

CZ-6A DEB was lifted into orbit during the mission ‘Long March 6A | G60 Polar Group 01’, on board a Long March 6A space rocket.

The launch took place on Aug. 6, 2024, 6:42 a.m. from Launch Complex 9A.

For more information about the launch, click the button.

Launch to space Long March 6A | G60 Polar Group 01
Long March 6A | G60 Polar Group 01

Agency: N/A

Status: Launch Successful

Launch date: Aug. 6, 2024, 6:42 a.m. UTC

Rocket: Long March 6A

Launch pad: Launch Complex 9A

Location: Taiyuan Satellite Launch Center, People's Republic of China

...

Latest news about this satellite

News about space launch
Brightness of first Chinese broadband constellation satellites alarms astronomers

The first satellites of a Chinese broadband constellation are significantly brighter than those of Western systems, posing a new challenge for astronomers.

News about space launch
Chinese rocket stage breaks up into cloud of more than 700 pieces of space debris

HELSINKI — A Chinese Long March 6A rocket’s upper stage has fragmented into a cloud of over 700 pieces of space debris, adding to concerns about long-term orbital safety. China […]

News about space launch
China's Thousand Sails Megaconstellation Kicks Off with Dangerous Debris Field

China's Thousand Sails Megaconstellation Kicks Off with Dangerous Debris Field


Newsletter sign-up

Weekly statistics, charts and insights to help you stay on top of the space industry.